When you browse on this site, cookies collect data to enhance your experience and personalize the content and advertising you see.
Visit our Privacy Policy to learn more. By continuing to use the site, you agree to this use of cookies and data.
  • In United Kingdom
  • List of Countries
  • For 7 days
  • Water Temperature
  • Weather Map
  • Weather Widgets
  • user-avatar
    Login

    Hourly Weather Kiskoros

    Today, 20 September, Friday

    Time Temperature Precipitation Wind Pressure Humidity
    00:00 +9°C° 0 mm 3 mps 760 mmHg 56%
    01:00 +9°C° 0 mm 3 mps 760 mmHg 59%
    02:00 +8°C° 0 mm 3 mps 760 mmHg 61%
    03:00 +8°C° 0 mm 3 mps 760 mmHg 64%
    04:00 +7°C° 0 mm 3 mps 760 mmHg 67%
    05:00 +8°C° 0 mm 3 mps 760 mmHg 65%
    06:00 +9°C° 0 mm 2 mps 761 mmHg 63%
    07:00 +9°C° 0 mm 2 mps 761 mmHg 61%
    08:00 +12°C° 0 mm 2 mps 761 mmHg 54%
    09:00 +14°C° 0 mm 2 mps 761 mmHg 47%
    10:00 +16°C° 0 mm 2 mps 762 mmHg 40%
    11:00 +17°C° 0 mm 2 mps 761 mmHg 37%
    12:00 +18°C° 0 mm 2 mps 761 mmHg 33%
    13:00 +19°C° 0 mm 2 mps 760 mmHg 30%
    14:00 +19°C° 0 mm 2 mps 760 mmHg 29%
    15:00 +19°C° 0 mm 2 mps 760 mmHg 28%
    16:00 +19°C° 0 mm 2 mps 760 mmHg 28%
    17:00 +18°C° 0 mm 1 mps 760 mmHg 31%
    18:00 +15°C° 0 mm 1 mps 760 mmHg 34%
    19:00 +12°C° 0 mm 0 mps 760 mmHg 38%
    20:00 +13°C° 0 mm 1 mps 760 mmHg 39%
    21:00 +12°C° 0 mm 1 mps 760 mmHg 40%
    22:00 +12°C° 0 mm 1 mps 760 mmHg 41%
    23:00 +11°C° 0 mm 1 mps 760 mmHg 42%

    Tomorrow, 21 September, Saturday

    Time Temperature Precipitation Wind Pressure Humidity
    00:00 +11°C° 0 mm 1 mps 760 mmHg 44%
    01:00 +10°C° 0 mm 1 mps 761 mmHg 45%
    02:00 +10°C° 0 mm 1 mps 760 mmHg 47%
    03:00 +9°C° 0 mm 0 mps 760 mmHg 49%
    04:00 +8°C° 0 mm 0 mps 760 mmHg 51%
    05:00 +9°C° 0 mm 0 mps 760 mmHg 49%
    06:00 +10°C° 0 mm 0 mps 760 mmHg 47%
    07:00 +11°C° 0 mm 0 mps 761 mmHg 45%
    08:00 +13°C° 0 mm 0 mps 761 mmHg 40%
    09:00 +16°C° 0 mm 1 mps 761 mmHg 36%
    10:00 +19°C° 0 mm 1 mps 761 mmHg 32%
    11:00 +20°C° 0 mm 1 mps 760 mmHg 30%
    12:00 +21°C° 0 mm 1 mps 760 mmHg 27%
    13:00 +22°C° 0 mm 1 mps 759 mmHg 25%
    14:00 +22°C° 0 mm 1 mps 759 mmHg 25%
    15:00 +22°C° 0 mm 1 mps 759 mmHg 25%
    16:00 +22°C° 0 mm 1 mps 758 mmHg 25%
    17:00 +20°C° 0 mm 1 mps 758 mmHg 29%
    18:00 +17°C° 0 mm 2 mps 758 mmHg 32%
    19:00 +15°C° 0 mm 2 mps 758 mmHg 36%
    20:00 +15°C° 0 mm 2 mps 758 mmHg 37%
    21:00 +14°C° 0 mm 2 mps 758 mmHg 38%
    22:00 +13°C° 0 mm 2 mps 758 mmHg 39%
    23:00 +13°C° 0 mm 2 mps 758 mmHg 39%

    Day after tomorrow, 22 September, Sunday

    Time Temperature Precipitation Wind Pressure Humidity
    00:00 +13°C° 0 mm 2 mps 757 mmHg 40%
    01:00 +12°C° 0 mm 2 mps 757 mmHg 40%
    02:00 +12°C° 0 mm 2 mps 757 mmHg 41%
    03:00 +12°C° 0 mm 2 mps 757 mmHg 42%
    04:00 +10°C° 0 mm 2 mps 757 mmHg 43%
    05:00 +12°C° 0 mm 2 mps 756 mmHg 42%
    06:00 +12°C° 0 mm 3 mps 756 mmHg 42%
    07:00 +12°C° 0 mm 3 mps 756 mmHg 41%
    08:00 +16°C° 0 mm 3 mps 756 mmHg 36%
    09:00 +19°C° 0 mm 4 mps 756 mmHg 31%
    10:00 +21°C° 0 mm 4 mps 756 mmHg 26%
    11:00 +23°C° 0 mm 4 mps 755 mmHg 23%
    12:00 +25°C° 0 mm 4 mps 755 mmHg 21%
    13:00 +26°C° 0 mm 4 mps 754 mmHg 19%
    14:00 +26°C° 0 mm 4 mps 754 mmHg 19%
    15:00 +26°C° 0 mm 4 mps 753 mmHg 19%
    16:00 +26°C° 0 mm 4 mps 752 mmHg 20%
    17:00 +24°C° 0 mm 3 mps 752 mmHg 22%
    18:00 +21°C° 0 mm 3 mps 752 mmHg 24%
    19:00 +19°C° 0 mm 3 mps 752 mmHg 26%
    20:00 +20°C° 0 mm 3 mps 752 mmHg 26%
    21:00 +20°C° 0 mm 3 mps 752 mmHg 25%
    22:00 +20°C° 0 mm 3 mps 751 mmHg 24%
    23:00 +20°C° 0 mm 3 mps 751 mmHg 25%

    23 September, Monday

    Time Temperature Precipitation Wind Pressure Humidity
    00:00 +19°C° 0 mm 3 mps 751 mmHg 25%
    01:00 +19°C° 0 mm 3 mps 750 mmHg 26%
    02:00 +19°C° 0 mm 3 mps 750 mmHg 27%
    03:00 +19°C° 0 mm 2 mps 750 mmHg 28%
    04:00 +18°C° 0 mm 2 mps 750 mmHg 29%
    05:00 +18°C° 0 mm 2 mps 749 mmHg 32%
    06:00 +18°C° 0 mm 3 mps 749 mmHg 35%
    07:00 +17°C° 0 mm 3 mps 749 mmHg 38%
    08:00 +17°C° 0.5 mm 3 mps 749 mmHg 45%
    09:00 +17°C° 0.5 mm 3 mps 749 mmHg 53%
    10:00 +17°C° 0.5 mm 3 mps 749 mmHg 61%
    11:00 +17°C° 0.6 mm 3 mps 749 mmHg 66%
    12:00 +17°C° 0.6 mm 3 mps 748 mmHg 71%
    13:00 +18°C° 0.6 mm 3 mps 748 mmHg 76%
    14:00 +18°C° 0.1 mm 3 mps 747 mmHg 74%
    15:00 +19°C° 0.1 mm 3 mps 747 mmHg 72%
    16:00 +20°C° 0.1 mm 3 mps 747 mmHg 71%
    17:00 +18°C° 1 mm 3 mps 747 mmHg 77%
    18:00 +17°C° 1 mm 4 mps 747 mmHg 83%
    19:00 +15°C° 1 mm 4 mps 747 mmHg 90%
    20:00 +14°C° 0.7 mm 4 mps 747 mmHg 90%
    21:00 +14°C° 0.7 mm 4 mps 747 mmHg 91%
    22:00 +14°C° 0.7 mm 4 mps 747 mmHg 91%
    23:00 +13°C° 0.9 mm 4 mps 747 mmHg 92%

    24 September, Tuesday

    Time Temperature Precipitation Wind Pressure Humidity
    00:00 +13°C° 0.9 mm 4 mps 748 mmHg 92%
    01:00 +13°C° 0.9 mm 5 mps 748 mmHg 92%
    02:00 +13°C° 0.2 mm 4 mps 747 mmHg 91%
    03:00 +13°C° 0.2 mm 4 mps 747 mmHg 90%
    04:00 +13°C° 0.2 mm 3 mps 747 mmHg 90%
    05:00 +13°C° 0.3 mm 3 mps 747 mmHg 89%
    06:00 +13°C° 0.3 mm 3 mps 747 mmHg 89%
    07:00 +13°C° 0.3 mm 3 mps 748 mmHg 88%
    08:00 +13°C° 0.2 mm 3 mps 748 mmHg 85%
    09:00 +14°C° 0.2 mm 4 mps 748 mmHg 82%
    10:00 +15°C° 0.2 mm 4 mps 749 mmHg 79%
    11:00 +17°C° 0 mm 4 mps 749 mmHg 73%
    12:00 +19°C° 0 mm 4 mps 749 mmHg 66%
    13:00 +21°C° 0 mm 4 mps 749 mmHg 60%
    14:00 +21°C° 0 mm 3 mps 749 mmHg 58%
    15:00 +21°C° 0 mm 3 mps 749 mmHg 56%
    16:00 +23°C° 0 mm 2 mps 749 mmHg 55%
    17:00 +20°C° 0 mm 2 mps 749 mmHg 60%
    18:00 +19°C° 0 mm 2 mps 749 mmHg 65%
    19:00 +18°C° 0 mm 1 mps 750 mmHg 70%
    20:00 +17°C° 0 mm 2 mps 750 mmHg 72%
    21:00 +17°C° 0 mm 2 mps 750 mmHg 73%
    22:00 +16°C° 0 mm 2 mps 750 mmHg 75%
    23:00 +16°C° 0 mm 3 mps 750 mmHg 78%

    25 September, Wednesday

    Time Temperature Precipitation Wind Pressure Humidity
    00:00 +14°C° 0 mm 3 mps 750 mmHg 81%
    01:00 +14°C° 0 mm 3 mps 750 mmHg 84%
    02:00 +13°C° 0 mm 3 mps 750 mmHg 85%
    03:00 +14°C° 0 mm 2 mps 750 mmHg 87%
    04:00 +14°C° 0 mm 2 mps 750 mmHg 88%
    05:00 +14°C° 0 mm 2 mps 750 mmHg 86%
    06:00 +15°C° 0 mm 2 mps 750 mmHg 83%
    07:00 +15°C° 0 mm 2 mps 751 mmHg 81%
    08:00 +17°C° 0 mm 2 mps 751 mmHg 73%
    09:00 +19°C° 0 mm 2 mps 751 mmHg 65%
    10:00 +21°C° 0 mm 2 mps 751 mmHg 57%
    11:00 +23°C° 0 mm 2 mps 750 mmHg 52%
    12:00 +24°C° 0 mm 2 mps 750 mmHg 47%
    13:00 +25°C° 0 mm 2 mps 750 mmHg 42%
    14:00 +25°C° 0 mm 2 mps 749 mmHg 42%
    15:00 +25°C° 0 mm 2 mps 749 mmHg 42%
    16:00 +25°C° 0 mm 2 mps 749 mmHg 42%
    17:00 +24°C° 0 mm 2 mps 749 mmHg 48%
    18:00 +21°C° 0 mm 2 mps 749 mmHg 54%
    19:00 +19°C° 0 mm 3 mps 749 mmHg 60%
    20:00 +19°C° 0 mm 3 mps 749 mmHg 62%
    21:00 +19°C° 0 mm 3 mps 749 mmHg 63%
    22:00 +19°C° 0 mm 3 mps 749 mmHg 64%
    23:00 +18°C° 0 mm 3 mps 748 mmHg 66%
    Show more